Printer-friendly version

IAU Minor Planet Center

Minor Planet Center

MPEC 2004-G01 : 2004 FM32

The following Minor Planet Electronic Circular may be linked-to from your own Web pages, but must not otherwise be redistributed electronically.


Read MPEC 2004-F98 Read MPEC 2004-G02


M.P.E.C. 2004-G01                                Issued 2004 Apr. 1, 12:41 UT

     The Minor Planet Electronic Circulars contain information on unusual
         minor planets and routine data on comets.  They are published
   on behalf of Commission 20 of the International Astronomical Union by the
          Minor Planet Center, Smithsonian Astrophysical Observatory,
                          Cambridge, MA 02138, U.S.A.

         Supported in part by the Steven and Michele Kirsch Foundation
             Prepared using the Tamkin Foundation Computer Network

                              MPC@CFA.HARVARD.EDU
          URL http://cfa-www.harvard.edu/iau/mpc.html  ISSN 1523-6714

                                   2004 FM32

Observations:
     K04F32M* C2004 03 30.32724 15 38 22.71 +14 11 04.4          19.4   EG001704
     K04F32M  C2004 03 30.33676 15 38 10.11 +14 11 45.8          19.4   EG001704
     K04F32M  C2004 03 30.34681 15 37 56.73 +14 12 29.0          19.6   EG001704
     K04F32M  C2004 03 30.35651 15 37 43.79 +14 13 10.2          19.7   EG001704
     K04F32M  C2004 03 30.36601 15 37 31.10 +14 13 49.3          19.9   EG001704
     K04F32M  C2004 03 31.37083 15 22 00.85 +15 04 25.4          19.2   EG001704
     K04F32M  C2004 03 31.37371 15 21 57.95 +15 04 32.6          19.3   EG001704
     K04F32M  C2004 03 31.37383 15 21 57.87 +15 04 32.2          19.1   EG001704
     K04F32M  C2004 03 31.38051 15 21 51.23 +15 04 50.7          19.5   EG001704
     K04F32M  C2004 03 31.38375 15 21 47.95 +15 04 58.6          19.5   EG001704
     K04F32M  C2004 03 31.38387 15 21 47.84 +15 04 59.2          19.9   EG001704
     K04F32M  C2004 03 31.39022 15 21 41.61 +15 05 15.7          19.9   EG001704
     K04F32M  C2004 03 31.39378 15 21 38.08 +15 05 24.3          19.2   EG001704
     K04F32M  C2004 03 31.39390 15 21 37.89 +15 05 24.2          19.7   EG001704
     K04F32M  C2004 03 31.39997 15 21 31.90 +15 05 39.0          19.4   EG001704
     K04F32M  C2004 03 31.40381 15 21 28.03 +15 05 48.5          19.4   EG001704
     K04F32M  C2004 03 31.40393 15 21 27.95 +15 05 48.8          19.2   EG001704
     K04F32M  C2004 03 31.40989 15 21 22.04 +15 06 03.1          19.5   EG001704
     K04F32M  C2004 03 31.41386 15 21 18.11 +15 06 12.6          19.5   EG001704
     K04F32M  C2004 03 31.41398 15 21 18.01 +15 06 12.7          19.4   EG001704
     K04F32M  C2004 04 01.25137 15 12 09.25 +15 33 11.5          19.4 R EG001649
     K04F32M  C2004 04 01.25565 15 12 05.98 +15 33 21.6          19.8 R EG001649
     K04F32M  C2004 04 01.25707 15 12 04.97 +15 33 24.4          20.0 R EG001649
     K04F32M 5C2004 04 01.25741 15 12 13.24 +15 33 23.4          20.0 R EG001673
     K04F32M  C2004 04 01.25850 15 12 03.90 +15 33 26.8          20.3 R EG001649
     K04F32M 5C2004 04 01.26354 15 12 08.97 +15 33 37.8                 EG001673
     K04F32M 5C2004 04 01.27072 15 12 03.93 +15 33 54.6                 EG001673
     K04F32M 5C2004 04 01.28125 15 11 56.41 +15 34 18.4                 EG001673
     K04F32M 5C2004 04 01.29873 15 11 44.01 +15 34 58.3                 EG001673
     K04F32M 5C2004 04 01.31192 15 11 34.52 +15 35 28.8                 EG001673

Observer details:
649 Powell Observatory, Louisburg.  Observer R. Fredrick.  0.75-m Newtonian
    + CCD.
673 Table Mountain Observatory, Wrightwood.  Observer J. Young.  0.6-m
    reflector + CCD.
704 Lincoln Laboratory ETS, New Mexico.  Observers M. Blythe, F. Shelly,
    M. Bezpalko, R. Huber, L. Manguso, D. Torres, R. Kracke, M. McCleary,
    H. Stange, A. Milner.  Measurers J. Stuart, R. Sayer, J. Evans, J. Kommers.
    1.0-m f/2.15 reflector + CCD.

Orbital elements:
2004 FM32
Epoch 2004 July 14.0 TT = JDT 2453200.5                 MPC
M 141.16469              (2000.0)            P               Q
n   0.85409612     Peri.  298.34607     -0.54278467     -0.83985548
a   1.1001829      Node   184.53781     +0.79193850     -0.50971455
e   0.1638654      Incl.    3.80592     +0.27967519     -0.18663830
P   1.15           H   27.2           G   0.15           U   7
Residuals in seconds of arc
040330 704  0.1-  0.7-    040331 704  0.2-  0.6+    040401 649  0.6+  0.4-
040330 704  0.1+  0.5-    040331 704  0.7+  1.1+    040401 649  0.9-  0.3+
040330 704  0.3-  0.2-    040331 704  0.7+  0.8+    040401 649  0.3-  0.0
040330 704  0.6-  0.3+    040331 704  0.3-  0.4+    040401 673  0.0   0.2-
040330 704  0.8-  0.3+    040331 704  0.1-  0.3+    040401 649  0.5-  0.7-
040331 704  0.9+  0.5+    040331 704  1.1-  0.4+    040401 673  0.3-  0.3-
040331 704  0.2+  0.2+    040331 704  0.5-  0.5+    040401 673  0.6-  0.3-
040331 704  0.8+  0.5-    040331 704  0.9-  0.4+    040401 673  1.8-  0.9-
040331 704  0.6+  0.7+    040331 704  1.1-  0.5+    040401 673  0.2+  0.7-
040331 704  0.4-  0.3+    040331 704  0.8-  0.4+    040401 673  1.9+  0.7+

Ephemeris:
2004 FM32                a,e,i = 1.10, 0.16, 4                   q = 0.9199
Date    TT    R. A. (2000) Decl.     Delta      r     Elong.  Phase     V
2004 03 26    19 37.87   -04 58.4    0.0047   0.996    71.0   108.8    19.6
2004 03 27    17 55.88   +04 00.1    0.0055   0.999    96.9    82.8    18.8
2004 03 28    16 50.03   +09 24.9    0.0072   1.001   113.5    66.1    18.8
2004 03 29    16 09.97   +12 16.9    0.0092   1.004   123.5    56.0    19.1
2004 03 30    15 44.39   +13 53.3    0.011    1.006   129.9    49.6    19.4
2004 03 31    15 26.97   +14 51.8    0.014    1.009   134.2    45.2    19.6
2004 04 01    15 14.45   +15 29.7    0.016    1.011   137.4    42.0    19.9
2004 04 02    15 05.03   +15 55.5    0.018    1.014   139.8    39.5    20.1
2004 04 03    14 57.69   +16 13.6    0.021    1.016   141.7    37.6    20.3
2004 04 04    14 51.80   +16 26.6    0.023    1.019   143.3    35.9    20.5
2004 04 05    14 46.95   +16 36.0    0.026    1.022   144.6    34.6    20.7
2004 04 06    14 42.88   +16 42.7    0.028    1.024   145.7    33.4    20.9
2004 04 07    14 39.39   +16 47.3    0.031    1.027   146.7    32.4    21.1
2004 04 08    14 36.37   +16 50.3    0.033    1.029   147.5    31.5    21.2
2004 04 09    14 33.70   +16 52.0    0.036    1.032   148.2    30.7    21.4
2004 04 10    14 31.33   +16 52.6    0.038    1.035   148.9    30.0    21.5
2004 04 11    14 29.18   +16 52.2    0.041    1.037   149.4    29.5    21.6
2004 04 12    14 27.24   +16 50.9    0.043    1.040   149.9    28.9    21.7
2004 04 13    14 25.46   +16 48.7    0.046    1.043   150.3    28.5    21.9
2004 04 14    14 23.82   +16 45.8    0.048    1.046   150.6    28.1    22.0
2004 04 15    14 22.31   +16 42.2    0.051    1.048   150.9    27.7    22.1

                       (Last issue was M.P.E.C. 2004-F98)

Timothy B. Spahr             (C) Copyright 2004 MPC           M.P.E.C. 2004-G01

Read MPEC 2004-F98 Read MPEC 2004-G02


Our Web policy. Index to the CBAT/MPC/ICQ pages.


Valid HTML 4.01!